Location: Unspecified
(51.0000°N, 12.0000°E)
Time: 02:58:43
(UTC+01:00)

Amateur Radio Satellites - All Passes

Search period start: 23 November 2017 02:28
Search period end: 24 November 2017 02:28
Location: Unspecified, 51.0000°N, 12.0000°E

Satellite Date Start Highest point End Downlink Frequencies (MHz)
Time Altitude Azimuth
BEESAT 23 Nov 02:32:17 02:37:03 84° 74° (ENE) 02:41:52 436.000
UKube-1 23 Nov 02:37:30 02:40:16 16° 270° (W) 02:43:01 .
MOZHAYETS 4 23 Nov 02:39:45 02:44:18 69° 257° (WSW) 02:48:53
ISS 23 Nov 02:42:24 02:45:01 22° 215° (SW) 02:47:38 437.550
ITUPSAT 1 23 Nov 02:43:09 02:47:57 81° 256° (WSW) 02:52:47 437.325
KKS-1 23 Nov 02:45:19 02:47:26 13° 54° (NE) 02:49:33 437.445
CUBESAT XI-V 23 Nov 02:55:53 03:00:17 47° 69° (ENE) 03:04:45 437.345
M-CUBED/EXP-1 PRIME 23 Nov 02:59:21 03:03:42 44° 105° (ESE) 03:08:09 437.505
YUBILEINY 23 Nov 03:10:20 03:12:19 11° 64° (ENE) 03:14:18 435.215
Oscar 19 23 Nov 03:21:23 03:25:40 27° 300° (WNW) 03:29:57 437.125/150
BEESAT 2 23 Nov 03:31:06 03:34:58 47° 124° (SE) 03:38:53 435.950
SO-50 23 Nov 03:36:30 03:40:06 22° 24° (NNE) 03:43:44 436.795
ITAMSAT 1 23 Nov 03:37:48 03:42:44 41° 98° (E) 03:47:39 435.822/435.867
PCSat 23 Nov 03:44:02 03:47:30 17° 345° (NNW) 03:50:58 145.827
AO-85 23 Nov 03:47:50 03:51:12 28° 118° (ESE) 03:54:43 145.980
BEESAT 3 23 Nov 03:53:00 03:56:51 44° 319° (NW) 04:00:44 437.485
Gurwin Techsat 1B 23 Nov 04:00:58 04:04:46 20° 305° (NW) 04:08:33 435.225
RS-15 23 Nov 04:09:03 04:20:28 56° 244° (WSW) 04:31:17 29.354- 29.394
AO-7 23 Nov 04:11:50 04:20:15 80° 109° (ESE) 04:28:38 .
BEESAT 23 Nov 04:12:48 04:15:28 15° 272° (W) 04:18:09 436.000
KKS-1 23 Nov 04:18:46 04:23:15 78° 73° (ENE) 04:27:46 437.445
ITUPSAT 1 23 Nov 04:24:43 04:26:34 12° 274° (W) 04:28:25 437.325
M-CUBED/EXP-1 PRIME 23 Nov 04:34:00 04:37:55 30° 302° (WNW) 04:41:56 437.505
CUBESAT XI-V 23 Nov 04:34:07 04:37:53 25° 268° (W) 04:41:42 437.345
STRAND 1 23 Nov 04:36:40 04:38:28 12° 48° (NE) 04:40:16 437.568
STARS 23 Nov 04:38:00 04:42:19 53° 69° (ENE) 04:46:39 437.465
FO-29 23 Nov 04:47:50 04:49:34 11° 32° (NNE) 04:51:19 435.910
YUBILEINY 23 Nov 04:58:29 05:06:46 49° 88° (E) 05:15:08 435.215
BEESAT 2 23 Nov 05:09:12 05:12:51 31° 324° (NW) 05:16:32 435.950
DOVE 4 23 Nov 05:10:34 05:15:46 61° 100° (E) 05:20:42 437.250
SO-50 23 Nov 05:16:42 05:21:19 70° 46° (NE) 05:26:00 436.795
ITAMSAT 1 23 Nov 05:17:26 05:22:09 35° 297° (WNW) 05:26:50 435.822/435.867
XW-2D 23 Nov 05:19:59 05:22:20 16° 90° (E) 05:24:41 145.860 - 145.880
CUTE-I 23 Nov 05:23:26 05:27:01 18° 88° (E) 05:30:35 437.470
AO-85 23 Nov 05:27:35 05:31:25 45° 320° (NW) 05:35:29 145.980
PCSat 23 Nov 05:29:50 05:33:07 16° 12° (NNE) 05:36:24 145.827
BEESAT 3 23 Nov 05:32:56 05:35:20 15° 341° (NNW) 05:37:44 437.485
XW-2B 23 Nov 05:34:26 05:37:22 21° 92° (E) 05:40:18 145.730 - 145.750
NUDT-PHONESAT 23 Nov 05:41:32 05:44:05 17° 91° (E) 05:46:38 437.300
KKS-1 23 Nov 05:57:51 06:00:22 15° 272° (W) 06:02:54 437.445
XW-2C 23 Nov 05:59:43 06:03:18 38° 98° (E) 06:06:53 145.795 - 145.815
LilacSat-2 23 Nov 06:03:59 06:07:42 45° 99° (E) 06:11:24 437.200
AO-7 23 Nov 06:05:11 06:12:21 34° 311° (NW) 06:19:32 .
XW-2F 23 Nov 06:08:36 06:12:16 44° 99° (E) 06:15:54 145.980 - 146.000
HO-68 23 Nov 06:08:58 06:14:30 23° 89° (E) 06:19:58 435.675
STRAND 1 23 Nov 06:11:35 06:16:37 56° 69° (ENE) 06:21:39 437.568
STARS 23 Nov 06:15:36 06:18:58 21° 268° (W) 06:22:19 437.465
RS-15 23 Nov 06:24:44 06:29:48 14° 269° (W) 06:34:47 29.354- 29.394
CUBEBUG 2 23 Nov 06:26:07 06:27:59 13° 87° (E) 06:29:49 437.445
FO-29 23 Nov 06:26:09 06:32:17 33° 55° (NE) 06:38:56 435.910
KAITUO 1B 23 Nov 06:33:09 06:36:55 65° 102° (ESE) 06:40:40 145.475/437.950
CUTE 1.7 + AOD 2 23 Nov 06:44:57 06:48:49 32° 95° (E) 06:52:38 437.475
DOVE 4 23 Nov 06:48:50 06:53:01 25° 300° (WNW) 06:57:05 437.250
BEESAT 2 23 Nov 06:49:43 06:51:45 13° 347° (NNW) 06:53:48 435.950
XW-2D 23 Nov 06:53:06 06:56:50 55° 288° (WNW) 07:00:34 145.860 - 145.880
YUBILEINY 23 Nov 06:55:16 07:03:40 48° 291° (WNW) 07:12:11 435.215
SO-50 23 Nov 06:57:50 07:01:22 22° 245° (WSW) 07:04:57 436.795
CUTE-I 23 Nov 07:02:20 07:07:44 82° 289° (WNW) 07:13:05 437.470
ZACube-1 23 Nov 07:06:14 07:06:33 10° 85° (E) 07:06:51 437.345
XW-2B 23 Nov 07:08:07 07:11:42 40° 291° (WNW) 07:15:17 145.730 - 145.750
AO-85 23 Nov 07:10:13 07:12:52 16° 344° (NNW) 07:15:38 145.980
SEEDS 23 Nov 07:11:36 07:15:34 37° 97° (E) 07:19:31 437.485
BEESAT 3 23 Nov 07:13:03 07:14:28 12° 5° (N) 07:15:53 437.485
AAUSAT CUBESAT 2 23 Nov 07:13:07 07:16:07 19° 90° (E) 07:19:06 437.432
PCSat 23 Nov 07:13:17 07:18:12 33° 37° (NE) 07:23:05 145.827
NUDT-PHONESAT 23 Nov 07:14:36 07:18:10 45° 290° (WNW) 07:21:43 437.300
UWE-3 23 Nov 07:17:45 07:21:08 24° 93° (E) 07:24:30 435.000/436.395/437.385
XW-2C 23 Nov 07:34:16 07:37:18 23° 296° (WNW) 07:40:19 145.795 - 145.815
LilacSat-2 23 Nov 07:38:52 07:41:42 20° 297° (WNW) 07:44:33 437.200
XW-2F 23 Nov 07:43:18 07:46:06 20° 297° (WNW) 07:48:55 145.980 - 146.000
STRAND 1 23 Nov 07:51:55 07:56:07 25° 268° (W) 08:00:21 437.568
AO-73 23 Nov 07:53:22 07:56:54 26° 94° (E) 08:00:26 145.935
HO-68 23 Nov 07:55:52 08:03:07 86° 290° (WNW) 08:10:18 435.675
AO-7 23 Nov 07:59:12 08:02:40 13° 337° (NNW) 08:06:09 .
CUBEBUG 2 23 Nov 08:00:59 08:05:12 78° 285° (WNW) 08:09:19 437.445
XW-2A 23 Nov 08:06:15 08:09:36 70° 101° (E) 08:12:58 145.665 - 145.685
Oscar 11 23 Nov 08:07:31 08:11:12 27° 93° (E) 08:14:53 .
KAITUO 1B 23 Nov 08:08:18 08:10:26 15° 300° (WNW) 08:12:35 145.475/437.950
FO-29 23 Nov 08:09:52 08:16:44 71° 258° (WSW) 08:24:25 435.910
UNISAT 6 23 Nov 08:10:06 08:14:05 31° 65° (ENE) 08:18:00 437.425
TIGRISAT 23 Nov 08:13:54 08:17:53 31° 65° (ENE) 08:21:47 435.000
CUTE 1.7 + AOD 2 23 Nov 08:20:48 08:24:37 32° 294° (WNW) 08:28:27 437.475
BEESAT 2 23 Nov 08:29:12 08:31:08 13° 11° (N) 08:33:02 435.950
PRISM 23 Nov 08:33:40 08:36:48 21° 61° (ENE) 08:39:57 437.425
ZACube-1 23 Nov 08:39:21 08:43:31 84° 103° (ESE) 08:47:42 437.345
CUTE-I 23 Nov 08:43:37 08:47:01 17° 308° (NW) 08:50:24 437.470
SEEDS 23 Nov 08:47:30 08:51:09 28° 295° (WNW) 08:54:46 437.485
AAUSAT CUBESAT 2 23 Nov 08:47:46 08:51:52 53° 289° (WNW) 08:55:58 437.432
BEESAT 3 23 Nov 08:50:18 08:53:25 21° 28° (NNE) 08:56:30 437.485
AO-85 23 Nov 08:52:35 08:54:58 14° 9° (N) 08:57:27 145.980
UWE-3 23 Nov 08:53:52 08:57:46 40° 292° (WNW) 09:01:38 435.000/436.395/437.385
PCSat 23 Nov 08:56:36 09:02:00 65° 239° (WSW) 09:07:20 145.827
YUBILEINY 23 Nov 08:58:53 09:03:18 14° 319° (NW) 09:07:44 435.215
DELFI C3 23 Nov 09:00:08 09:03:11 20° 92° (E) 09:06:13 145.870
POLYITAN 1 23 Nov 09:27:52 09:29:06 11° 54° (NE) 09:30:19 437.675
AO-73 23 Nov 09:29:26 09:33:14 36° 292° (WNW) 09:37:02 145.935
AIST 2D 23 Nov 09:31:15 09:33:51 20° 64° (ENE) 09:36:29 435.315
EO-88 23 Nov 09:34:03 09:36:59 22° 93° (E) 09:39:54 145.990 - 145.960
CUBEBUG 2 23 Nov 09:39:39 09:41:05 12° 306° (NW) 09:42:30 437.445
Max Valier Satellite 23 Nov 09:40:10 09:43:34 35° 97° (E) 09:46:58 145.860
XW-2A 23 Nov 09:40:38 09:41:49 12° 301° (WNW) 09:43:01 145.665 - 145.685
Oscar 11 23 Nov 09:43:25 09:47:28 39° 292° (WNW) 09:51:30 .
HO-68 23 Nov 09:44:27 09:49:59 25° 311° (NW) 09:55:29 435.675
UNISAT 6 23 Nov 09:46:34 09:50:44 36° 263° (W) 09:54:52 437.425
QB50P2 23 Nov 09:49:21 09:52:17 18° 59° (ENE) 09:55:12 145.880/145.840
TIGRISAT 23 Nov 09:50:21 09:54:31 36° 264° (W) 09:58:37 435.000
FO-29 23 Nov 09:59:02 10:03:17 17° 281° (W) 10:07:47 435.910
BEESAT 2 23 Nov 10:06:30 10:10:06 29° 34° (NE) 10:13:38 435.950
PRISM 23 Nov 10:07:43 10:11:45 51° 260° (W) 10:15:51 437.425
ZACube-1 23 Nov 10:17:07 10:19:14 14° 303° (WNW) 10:21:22 437.345
BEESAT 3 23 Nov 10:27:29 10:31:28 88° 237° (WSW) 10:35:24 437.485
AO-85 23 Nov 10:32:50 10:36:44 29° 33° (NNE) 10:40:54 145.980
DELFI C3 23 Nov 10:34:18 10:38:08 44° 291° (WNW) 10:41:56 145.870
DUCHIFAT 1 23 Nov 10:34:31 10:38:16 33° 66° (ENE) 10:42:03 145.980
PCSat 23 Nov 10:42:28 10:44:21 12° 258° (WSW) 10:46:15 145.827
EO-79 23 Nov 10:44:06 10:48:12 50° 70° (ENE) 10:52:18 145.935-145.965
NANOSAT C BR1 23 Nov 10:45:58 10:50:01 46° 69° (ENE) 10:54:04 145.865
POLYITAN 1 23 Nov 10:59:53 11:04:07 71° 73° (ENE) 11:08:20 437.675
AIST 2D 23 Nov 11:03:38 11:06:50 35° 263° (W) 11:10:05 435.315
EO-88 23 Nov 11:07:22 11:10:43 34° 292° (WNW) 11:14:02 145.990 - 145.960
ESTCUBE 1 23 Nov 11:14:14 11:18:22 33° 96° (E) 11:22:29 437.505/2401.250
Max Valier Satellite 23 Nov 11:14:19 11:17:14 22° 295° (WNW) 11:20:09 145.860
BUGSAT 1 23 Nov 11:18:58 11:22:28 26° 64° (ENE) 11:25:57 437.445
QB50P2 23 Nov 11:23:27 11:27:40 62° 259° (W) 11:31:53 145.880/145.840
LO-87 23 Nov 11:24:41 11:28:11 55° 101° (E) 11:31:39 145.935 - 145.965
Oscar 19 23 Nov 11:25:42 11:29:44 24° 58° (ENE) 11:33:47 437.125/150
AO-7 23 Nov 11:36:20 11:41:14 17° 32° (NNE) 11:46:08 .
BEESAT 2 23 Nov 11:44:05 11:48:03 54° 235° (SW) 11:51:57 435.950
SPROUT 23 Nov 12:06:17 12:10:01 29° 95° (E) 12:13:43 437.525
BEESAT 3 23 Nov 12:06:40 12:08:22 12° 249° (WSW) 12:10:02 437.485
Gurwin Techsat 1B 23 Nov 12:07:04 12:11:55 37° 63° (ENE) 12:16:48 435.225
DUCHIFAT 1 23 Nov 12:10:12 12:13:56 31° 264° (W) 12:17:42 145.980
AO-85 23 Nov 12:12:58 12:17:33 72° 231° (SW) 12:22:29 145.980
M-CUBED/EXP-1 PRIME 23 Nov 12:17:04 12:19:33 17° 51° (NE) 12:22:11 437.505
EO-79 23 Nov 12:21:03 12:24:13 20° 268° (W) 12:27:25 145.935-145.965
NANOSAT C BR1 23 Nov 12:22:40 12:25:57 22° 268° (W) 12:29:14 145.865
POLYITAN 1 23 Nov 12:37:58 12:40:23 15° 272° (W) 12:42:46 437.675
ESTCUBE 1 23 Nov 12:51:04 12:55:10 34° 295° (WNW) 12:59:16 437.505/2401.250
BUGSAT 1 23 Nov 12:53:46 12:57:41 38° 262° (W) 13:01:35 437.445
O/OREOS (USA 219) 23 Nov 12:56:59 13:01:16 39° 109° (ESE) 13:05:35 437.305
LO-87 23 Nov 12:59:07 13:01:12 15° 299° (WNW) 13:03:16 145.935 - 145.965
VELOX 1 23 Nov 13:01:23 13:05:51 63° 102° (ESE) 13:10:15 145.980
Oscar 19 23 Nov 13:03:36 13:08:39 63° 257° (WSW) 13:13:47 437.125/150
YUBILEINY 23 Nov 13:08:54 13:09:08 10° 31° (NNE) 13:09:22 435.215
ITAMSAT 1 23 Nov 13:23:17 13:27:03 21° 55° (NE) 13:30:50 435.822/435.867
AO-7 23 Nov 13:24:18 13:32:06 48° 56° (NE) 13:39:56 .
DX 1 23 Nov 13:39:56 13:44:04 39° 98° (E) 13:48:10 434.975-435.025
SPROUT 23 Nov 13:42:04 13:45:58 35° 293° (WNW) 13:49:49 437.525
Gurwin Techsat 1B 23 Nov 13:46:53 13:51:51 40° 263° (W) 13:56:52 435.225
M-CUBED/EXP-1 PRIME 23 Nov 13:49:46 13:53:26 69° 251° (WSW) 13:57:28 437.505
NO-84 23 Nov 13:50:28 13:51:36 11° 126° (SE) 13:52:44 435.350 FM
AO-85 23 Nov 13:55:08 13:57:18 13° 250° (WSW) 13:59:32 145.980
50 SAT 23 Nov 14:06:12 14:09:27 90° 43° (NE) 14:12:39 437.505
UKube-1 23 Nov 14:17:08 14:21:26 58° 102° (ESE) 14:25:42 .
BEESAT 23 Nov 14:28:30 14:31:09 15° 88° (E) 14:33:47 436.000
MOZHAYETS 4 23 Nov 14:30:10 14:33:30 19° 90° (E) 14:36:48
O/OREOS (USA 219) 23 Nov 14:36:34 14:40:46 33° 309° (NW) 14:44:58 437.305
VELOX 1 23 Nov 14:38:38 14:41:52 20° 301° (WNW) 14:45:04 145.980
ITUPSAT 1 23 Nov 14:39:19 14:42:34 18° 90° (E) 14:45:47 437.325
DOVE 4 23 Nov 14:44:30 14:48:09 20° 56° (NE) 14:51:52 437.250
ITAMSAT 1 23 Nov 15:00:42 15:05:57 80° 256° (WSW) 15:11:14 435.822/435.867
YUBILEINY 23 Nov 15:01:47 15:09:40 34° 61° (ENE) 15:17:29 435.215
HO-68 23 Nov 15:02:53 15:03:41 10° 30° (NNE) 15:04:28 435.675
CUTE-I 23 Nov 15:15:00 15:15:58 10° 45° (NE) 15:16:56 437.470
DX 1 23 Nov 15:16:21 15:20:08 28° 297° (WNW) 15:23:53 434.975-435.025
AO-7 23 Nov 15:16:47 15:24:50 53° 258° (WSW) 15:32:57 .
NO-84 23 Nov 15:24:25 15:28:05 54° 145° (SE) 15:32:02 435.350 FM
UKube-1 23 Nov 15:53:54 15:57:06 20° 301° (WNW) 16:00:17 .
BEESAT 23 Nov 16:04:47 16:09:34 84° 289° (WNW) 16:14:19 436.000
XW-2D 23 Nov 16:06:08 16:08:32 17° 61° (ENE) 16:10:58 145.860 - 145.880
MOZHAYETS 4 23 Nov 16:06:31 16:11:02 60° 289° (WNW) 16:15:32
KKS-1 23 Nov 16:07:29 16:08:04 10° 85° (E) 16:08:41 437.445
ITUPSAT 1 23 Nov 16:16:08 16:20:53 69° 289° (WNW) 16:25:37 437.325
DOVE 4 23 Nov 16:20:00 16:25:09 84° 255° (WSW) 16:30:31 437.250
XW-2B 23 Nov 16:20:28 16:23:21 21° 64° (ENE) 16:26:16 145.730 - 145.750
CUBESAT XI-V 23 Nov 16:24:04 16:28:43 58° 100° (E) 16:33:21 437.345
NUDT-PHONESAT 23 Nov 16:25:26 16:27:55 18° 62° (ENE) 16:30:25 437.300
RS-15 23 Nov 16:30:57 16:38:12 18° 94° (E) 16:45:23 29.354- 29.394
HO-68 23 Nov 16:43:06 16:49:16 32° 54° (NE) 16:55:26 435.675
ITAMSAT 1 23 Nov 16:43:46 16:46:16 13° 274° (W) 16:48:47 435.822/435.867
XW-2C 23 Nov 16:45:30 16:48:58 38° 69° (ENE) 16:52:29 145.795 - 145.815
CUTE-I 23 Nov 16:49:40 16:54:46 46° 66° (ENE) 16:59:55 437.470
LilacSat-2 23 Nov 16:50:22 16:53:58 45° 70° (ENE) 16:57:36 437.200
XW-2F 23 Nov 16:53:51 16:57:24 43° 70° (ENE) 17:00:57 145.980 - 146.000
YUBILEINY 23 Nov 16:58:29 17:07:19 73° 266° (W) 17:16:05 435.215
NO-84 23 Nov 17:01:37 17:05:29 56° 347° (NNW) 17:09:36 435.350 FM
AO-7 23 Nov 17:17:11 17:19:41 11° 281° (W) 17:22:12 .
KAITUO 1B 23 Nov 17:17:24 17:21:03 62° 72° (ENE) 17:24:43 145.475/437.950
CUBEBUG 2 23 Nov 17:28:06 17:31:34 22° 62° (ENE) 17:34:57 437.445
XW-2D 23 Nov 17:38:41 17:42:20 54° 259° (W) 17:46:03 145.860 - 145.880
KKS-1 23 Nov 17:40:56 17:45:25 76° 103° (ESE) 17:49:53 437.445
CUTE 1.7 + AOD 2 23 Nov 17:42:06 17:46:04 41° 69° (ENE) 17:50:03 437.475
BEESAT 23 Nov 17:43:56 17:46:39 15° 306° (NW) 17:49:22 436.000
MOZHAYETS 4 23 Nov 17:46:20 17:47:17 11° 309° (NW) 17:48:13
XW-2B 23 Nov 17:53:49 17:57:20 39° 262° (W) 18:00:53 145.730 - 145.750
ITUPSAT 1 23 Nov 17:55:45 17:57:52 13° 309° (NW) 18:00:00 437.325
NUDT-PHONESAT 23 Nov 17:57:55 18:01:27 48° 261° (W) 18:05:02 437.300
STARS 23 Nov 17:58:15 18:02:33 49° 100° (E) 18:06:47 437.465
DOVE 4 23 Nov 18:00:49 18:03:39 15° 276° (W) 18:06:31 437.250
CUBESAT XI-V 23 Nov 18:02:06 18:05:44 23° 300° (WNW) 18:09:22 437.345
ZACube-1 23 Nov 18:05:19 18:08:04 17° 59° (ENE) 18:10:46 437.345
SEEDS 23 Nov 18:07:42 18:11:42 47° 70° (ENE) 18:15:46 437.485
AAUSAT CUBESAT 2 23 Nov 18:07:44 18:11:04 24° 63° (ENE) 18:14:26 437.432
STRAND 1 23 Nov 18:18:41 18:20:53 13° 85° (E) 18:23:04 437.568
UWE-3 23 Nov 18:19:04 18:23:05 37° 68° (ENE) 18:27:02 435.000/436.395/437.385
XW-2C 23 Nov 18:20:24 18:23:18 21° 267° (W) 18:26:13 145.795 - 145.815
LilacSat-2 23 Nov 18:25:52 18:28:29 18° 269° (W) 18:31:07 437.200
XW-2F 23 Nov 18:29:03 18:31:43 18° 269° (W) 18:34:24 145.980 - 146.000
HO-68 23 Nov 18:29:18 18:36:30 72° 255° (WSW) 18:43:45 435.675
CUTE-I 23 Nov 18:30:13 18:34:59 32° 265° (W) 18:39:48 437.470
RS-15 23 Nov 18:36:04 18:48:04 63° 119° (ESE) 18:59:58 29.354- 29.394
NO-84 23 Nov 18:39:19 18:43:18 50° 8° (N) 18:47:26 435.350 FM
XW-2A 23 Nov 18:41:41 18:44:54 50° 72° (ENE) 18:48:08 145.665 - 145.685
AO-73 23 Nov 18:53:18 18:57:15 38° 68° (ENE) 19:01:08 145.935
KAITUO 1B 23 Nov 18:53:37 18:55:25 13° 271° (W) 18:57:15 145.475/437.950
YUBILEINY 23 Nov 18:57:01 19:02:31 18° 288° (WNW) 19:07:59 435.215
CUBEBUG 2 23 Nov 19:03:28 19:07:54 53° 260° (W) 19:12:13 437.445
Oscar 11 23 Nov 19:06:50 19:10:48 37° 67° (ENE) 19:14:47 .
FO-29 23 Nov 19:14:57 19:20:20 20° 82° (E) 19:25:31 435.910
KKS-1 23 Nov 19:18:33 19:21:27 17° 303° (WNW) 19:24:20 437.445
CUTE 1.7 + AOD 2 23 Nov 19:18:38 19:22:03 24° 267° (W) 19:25:31 437.475
STARS 23 Nov 19:35:07 19:38:37 23° 299° (WNW) 19:42:06 437.465
ZACube-1 23 Nov 19:39:39 19:43:54 68° 258° (WSW) 19:48:07 437.345
AAUSAT CUBESAT 2 23 Nov 19:42:23 19:46:19 42° 262° (W) 19:50:18 437.432
SEEDS 23 Nov 19:44:26 19:47:38 21° 269° (W) 19:50:51 437.485
DELFI C3 23 Nov 19:49:56 19:53:09 24° 64° (ENE) 19:56:23 145.870
STRAND 1 23 Nov 19:55:46 20:00:56 78° 103° (ESE) 20:06:02 437.568
UWE-3 23 Nov 19:55:49 19:59:37 28° 265° (W) 20:03:22 435.000/436.395/437.385
nSIGHT-1 23 Nov 20:09:13 20:11:33 19° 143° (SE) 20:13:53 .
XW-2A 23 Nov 20:16:18 20:17:54 13° 270° (W) 20:19:32 145.665 - 145.685
EO-88 23 Nov 20:16:25 20:19:13 21° 64° (ENE) 20:22:02 145.990 - 145.960
NO-84 23 Nov 20:16:43 20:20:54 81° 208° (SSW) 20:25:11 435.350 FM
HO-68 23 Nov 20:21:18 20:25:32 16° 276° (W) 20:29:46 435.675
Max Valier Satellite 23 Nov 20:23:29 20:26:48 33° 68° (ENE) 20:30:07 145.860
AO-73 23 Nov 20:30:03 20:33:36 25° 266° (W) 20:37:08 145.935
Oscar 11 23 Nov 20:43:20 20:47:01 27° 266° (W) 20:50:44 .
RS-15 23 Nov 20:48:40 21:00:54 61° 326° (NW) 21:12:53 29.354- 29.394
FO-29 23 Nov 20:58:41 21:06:39 77° 103° (ESE) 21:14:08 435.910
ISS 23 Nov 21:00:44 21:03:45 34° 151° (SSE) 21:06:46 437.550
SO-50 23 Nov 21:15:50 21:19:54 35° 120° (ESE) 21:24:02 436.795
O/OREOS (USA 219) 23 Nov 21:22:41 21:26:43 30° 49° (NE) 21:30:43 437.305
DELFI C3 23 Nov 21:23:58 21:27:42 39° 262° (W) 21:31:30 145.870
UNISAT 6 23 Nov 21:32:43 21:36:35 32° 96° (E) 21:40:23 437.425
STRAND 1 23 Nov 21:35:54 21:39:34 20° 304° (NW) 21:43:13 437.568
TIGRISAT 23 Nov 21:36:21 21:40:11 31° 96° (E) 21:43:59 435.000
nSIGHT-1 23 Nov 21:44:11 21:47:23 67° 161° (SSE) 21:50:35 .
PRISM 23 Nov 21:44:42 21:47:15 16° 90° (E) 21:49:47 437.425
EO-88 23 Nov 21:49:18 21:52:40 36° 263° (W) 21:56:05 145.990 - 145.960
NO-84 23 Nov 21:54:35 21:57:50 21° 227° (SW) 22:01:05 435.350 FM
Max Valier Satellite 23 Nov 21:57:45 22:00:41 23° 267° (W) 22:03:38 145.860
LO-87 23 Nov 22:04:54 22:08:23 47° 71° (ENE) 22:11:52 145.935 - 145.965
ESTCUBE 1 23 Nov 22:18:15 22:22:38 55° 70° (ENE) 22:27:03 437.505/2401.250
AIST 2D 23 Nov 22:24:22 22:25:56 12° 89° (E) 22:27:30 435.315
VELOX 1 23 Nov 22:28:52 22:31:39 17° 57° (ENE) 22:34:26 145.980
ISS 23 Nov 22:36:46 22:40:03 87° 347° (NNW) 22:43:20 437.550
FO-29 23 Nov 22:44:15 22:51:00 33° 305° (NW) 22:57:31 435.910
SO-50 23 Nov 22:56:00 23:00:18 44° 321° (NW) 23:04:41 436.795
O/OREOS (USA 219) 23 Nov 23:01:57 23:06:18 44° 250° (WSW) 23:10:36 437.305
SPROUT 23 Nov 23:03:55 23:07:56 42° 68° (ENE) 23:12:00 437.525
QB50P2 23 Nov 23:04:10 23:06:39 15° 89° (E) 23:09:07 145.880/145.840
RS-15 23 Nov 23:04:41 23:16:12 42° 358° (N) 23:27:18 29.354- 29.394
DX 1 23 Nov 23:07:37 23:08:50 11° 52° (NE) 23:10:03 434.975-435.025
UNISAT 6 23 Nov 23:09:28 23:13:18 32° 295° (WNW) 23:17:05 437.425
TIGRISAT 23 Nov 23:13:03 23:16:53 32° 294° (WNW) 23:20:39 435.000
PRISM 23 Nov 23:18:47 23:22:57 65° 288° (WNW) 23:27:03 437.425
nSIGHT-1 23 Nov 23:20:24 23:23:38 77° 1° (N) 23:26:51 .
LO-87 23 Nov 23:39:46 23:42:02 16° 269° (W) 23:44:19 145.935 - 145.965
UKube-1 23 Nov 23:42:32 23:44:56 15° 55° (NE) 23:47:20 .
PCSat 23 Nov 23:43:05 23:48:08 41° 116° (ESE) 23:53:11 145.827
DUCHIFAT 1 23 Nov 23:48:31 23:52:10 28° 95° (E) 23:55:46 145.980
AIST 2D 23 Nov 23:55:59 23:59:28 60° 287° (WNW) 00:02:58 435.315
ESTCUBE 1 23 Nov 23:56:25 23:59:45 21° 269° (W) 00:03:09 437.505/2401.250
EO-79 23 Nov 23:59:04 00:03:07 45° 99° (E) 00:07:08 145.935-145.965
NANOSAT C BR1 24 Nov 00:00:28 00:04:28 41° 98° (E) 00:08:26 145.865
VELOX 1 24 Nov 00:03:05 00:07:32 80° 257° (WSW) 00:12:01 145.980
ISS 24 Nov 00:13:19 00:16:36 88° 1° (N) 00:19:52 437.550
POLYITAN 1 24 Nov 00:15:06 00:19:18 65° 103° (ESE) 00:23:27 437.675
BUGSAT 1 24 Nov 00:30:34 00:33:38 20° 92° (E) 00:36:39 437.445
FO-29 24 Nov 00:31:51 00:33:42 11° 328° (NNW) 00:35:33 435.910
50 SAT 24 Nov 00:37:22 00:40:33 62° 74° (ENE) 00:43:47 437.505
QB50P2 24 Nov 00:38:43 00:42:54 67° 287° (WNW) 00:47:03 145.880/145.840
SO-50 24 Nov 00:38:46 00:41:52 18° 344° (NNW) 00:44:59 436.795
DX 1 24 Nov 00:39:50 00:44:10 65° 71° (ENE) 00:48:33 434.975-435.025
SPROUT 24 Nov 00:40:27 00:43:59 25° 267° (W) 00:47:32 437.525
nSIGHT-1 24 Nov 00:56:41 00:59:51 58° 201° (SSW) 01:03:00 .
PRISM 24 Nov 00:56:52 00:57:23 10° 308° (NW) 00:57:55 437.425
Oscar 19 24 Nov 01:10:01 01:14:36 31° 95° (E) 01:19:10 437.125/150
UKube-1 24 Nov 01:16:00 01:20:20 88° 251° (WSW) 01:24:43 .
RS-15 24 Nov 01:19:41 01:31:38 57° 31° (NNE) 01:42:56 29.354- 29.394
DUCHIFAT 1 24 Nov 01:24:04 01:27:52 35° 293° (WNW) 01:31:38 145.980
PCSat 24 Nov 01:26:18 01:31:30 46° 317° (NW) 01:36:45 145.827
EO-79 24 Nov 01:35:18 01:38:39 23° 298° (WNW) 01:41:59 145.935-145.965
MOZHAYETS 4 24 Nov 01:36:30 01:40:35 33° 65° (ENE) 01:44:41
NANOSAT C BR1 24 Nov 01:36:34 01:39:59 25° 297° (WNW) 01:43:23 145.865
BEESAT 24 Nov 01:39:01 01:43:11 31° 63° (ENE) 01:47:21 436.000
VELOX 1 24 Nov 01:43:36 01:44:43 11° 275° (W) 01:45:50 145.980
ISS 24 Nov 01:49:54 01:52:54 33° 209° (SSW) 01:55:53 437.550
ITUPSAT 1 24 Nov 01:50:23 01:54:45 37° 65° (ENE) 01:59:09 437.325
POLYITAN 1 24 Nov 01:51:51 01:54:38 18° 301° (WNW) 01:57:25 437.675
CUBESAT XI-V 24 Nov 01:57:01 01:59:52 16° 56° (NE) 02:02:44 437.345
Gurwin Techsat 1B 24 Nov 01:57:17 02:02:32 56° 101° (E) 02:07:45 435.225
BEESAT 3 24 Nov 01:58:32 02:01:59 28° 119° (ESE) 02:05:27 437.485
BUGSAT 1 24 Nov 02:05:20 02:09:13 45° 291° (WNW) 02:13:03 437.445
50 SAT 24 Nov 02:12:31 02:13:02 10° 271° (W) 02:13:32 437.505
QB50P2 24 Nov 02:17:01 02:17:53 11° 307° (NW) 02:18:44 145.880/145.840
DX 1 24 Nov 02:17:55 02:20:48 17° 270° (W) 02:23:41 434.975-435.025
SO-50 24 Nov 02:21:11 02:24:01 16° 9° (N) 02:26:52 436.795
